Imperial, CA

1:06 AM PDT on May 30, 2017 (GMT -0700)
Imperial County

Weather History for KIPL - April, 2013

Change the Weather History Date:

Friday, April 19, 2013

  Actual Average Record
Temperature  
Mean Temperature 66 °F -  
Max Temperature 84 °F 83 °F 102 °F (1999)
Min Temperature 48 °F 55 °F 45 °F (2007)
Cooling Degree Days 1    
Growing Degree Days 16 (Base 50)    
Moisture  
Dew Point 20 °F    
Average Humidity 19    
Maximum Humidity 33    
Minimum Humidity 7    
Precipitation  
Precipitation 0.00 in - - ()
Sea Level Pressure  
Sea Level Pressure 30.05 in    
Wind  
Wind Speed 5 mph (WSW)    
Max Wind Speed 9 mph    
Max Gust Speed -    
Visibility 10 miles    
Events      
Averages and records for this station are not official NWS values.
T = Trace of Precipitation, MM = Missing Value Source: NWS Daily Summary

Daily Weather History Graph

Daily Weather History Graph

Search for Another Location

Airport or City:

Trip Planner

Search our weather history database for the weather conditions in past years. The results will help you decide how hot, cold, wet, or windy it might be!

Date:

Astronomy

Apr. 19, 2013 Rise Set
Actual Time 6:07 AM PDT 7:15 PM PDT
Civil Twilight 5:42 AM PDT 7:41 PM PDT
Nautical Twilight 5:11 AM PDT 8:11 PM PDT
Astronomical Twilight 4:40 AM PDT 8:43 PM PDT
Moon 1:23 PM PDT (4/19) 2:05 AM PDT (4/19)
Length of Visible Light 13h 59m
Length of Day
13h 08m
Waxing Gibbous, 62% of the Moon is Illuminated
Apr 19
Waxing Gibbous
Apr 25
Full
May 2
Last Quarter
May 9
New
May 17
First Quarter

Hourly Weather History & Observations

Time (PDT) Temp. Dew Point Humidity Pressure Visibility Wind Dir Wind Speed Gust Speed Precip Events Conditions
12:53 AM 54.0 °F 19.9 °F 26% 30.13 in 10.0 mi WSW 4.6 mph - N/A   Clear
1:53 AM 52.0 °F 23.0 °F 32% 30.12 in 10.0 mi West 3.5 mph - N/A   Clear
2:53 AM 48.9 °F 19.9 °F 32% 30.11 in 10.0 mi West 3.5 mph - N/A   Clear
3:53 AM 50.0 °F 19.9 °F 31% 30.10 in 10.0 mi WSW 5.8 mph - N/A   Clear
4:53 AM 48.9 °F 18.0 °F 29% 30.12 in 10.0 mi WSW 9.2 mph - N/A   Clear
5:53 AM 48.0 °F 19.9 °F 33% 30.13 in 10.0 mi WNW 3.5 mph - N/A   Clear
6:53 AM 48.9 °F 19.0 °F 31% 30.14 in 10.0 mi West 5.8 mph - N/A   Clear
7:53 AM 57.9 °F 25.0 °F 28% 30.15 in 10.0 mi WSW 4.6 mph - N/A   Clear
8:53 AM 66.9 °F 23.0 °F 19% 30.16 in 8.0 mi West 3.5 mph - N/A   Clear
9:53 AM 73.9 °F 19.0 °F 13% 30.16 in 10.0 mi NNW 3.5 mph - N/A   Clear
10:53 AM 78.1 °F 12.9 °F 8% 30.15 in 10.0 mi East 4.6 mph - N/A   Clear
11:53 AM 79.0 °F 15.1 °F 9% 30.13 in 10.0 mi East 4.6 mph - N/A   Clear
12:53 PM 80.1 °F 15.1 °F 9% 30.10 in 10.0 mi Variable 5.8 mph - N/A   Clear
1:53 PM 82.9 °F 16.0 °F 8% 30.06 in 10.0 mi NW 3.5 mph - N/A   Clear
2:53 PM 84.0 °F 17.1 °F 8% 30.02 in 10.0 mi Variable 4.6 mph - N/A   Clear
3:53 PM 82.9 °F 12.0 °F 7% 29.98 in 10.0 mi West 4.6 mph - N/A   Clear
4:53 PM 82.9 °F 12.9 °F 7% 29.95 in 10.0 mi SSW 4.6 mph - N/A   Clear
5:53 PM 82.0 °F 19.0 °F 10% 29.93 in 10.0 mi WSW 4.6 mph - N/A   Clear
6:53 PM 80.1 °F 21.0 °F 11% 29.92 in 10.0 mi South 6.9 mph - N/A   Clear
7:53 PM 75.9 °F 23.0 °F 14% 29.91 in 10.0 mi SSW 4.6 mph - N/A   Clear
8:53 PM 72.0 °F 25.0 °F 17% 29.92 in 10.0 mi South 3.5 mph - N/A   Clear
9:53 PM 68.0 °F 26.1 °F 21% 29.93 in 10.0 mi SSW 3.5 mph - N/A   Clear
10:53 PM 63.0 °F 30.0 °F 29% 29.91 in 10.0 mi SSW 3.5 mph - N/A   Clear
11:53 PM 61.0 °F 27.0 °F 27% 29.91 in 10.0 mi WSW 6.9 mph - N/A   Clear